Location: Ellerstadt
(49.4644°N, 8.2615°E)
Time: 12:26:19
(UTC+00:00)

deb Kosmos-2227 - Visible Passes

Search period start: 21 September 2021 00:00
Search period end: 01 October 2021 00:00
Orbit: 780 x 960 km, 71.1° (Epoch: 20 September)

Date Brightness Start Highest point End Pass type
(mag) Time Alt. Az. Time Alt. Az. Time Alt. Az.
21 Sep ? 19:24:06 10° NW 19:28:36 26° WSW 19:33:15 10° SSW visible
22 Sep ? 19:17:48 10° NW 19:22:08 24° WSW 19:26:35 10° SSW visible
23 Sep ? 19:11:32 10° NW 19:15:40 22° WSW 19:19:55 10° SSW visible
24 Sep ? 19:05:16 10° NW 19:09:11 20° W 19:13:13 10° SW visible
25 Sep ? 18:59:03 10° WNW 19:02:43 18° W 19:06:28 10° SW visible
26 Sep ? 18:52:51 10° WNW 18:56:14 17° W 18:59:40 10° SW visible
27 Sep ? 18:46:43 10° WNW 18:49:44 15° W 18:52:49 10° SW visible
28 Sep ? 18:40:38 10° WNW 18:43:15 13° W 18:45:54 10° SW visible
29 Sep ? 18:34:40 10° WNW 18:36:44 12° W 18:38:50 10° WSW visible
30 Sep ? 18:28:59 10° W 18:30:14 11° W 18:31:30 10° WSW visible
